Weather in Sovetskiy

Russia / Kostroma Oblast     58°54′56″N   44°35′23″E
temp.,
°C
wind,
m/s
gust,
m/s
humid.,
%
clouds,
%
prec.,
mm/h
press.,
hPa
HPBL,
m
17 may, mon
mon1700:00+13sw310945 0.0 1012240
03:00+11sw28960 0.0 1014183
06:00+14w37900 0.0 1015271
09:00+18w34671 0.0 1016835
12:00+21w345237 0.0 10171563
15:00+22w2348100 0.0 10171670
18:00+21n11639 0.0 101791
21:00+15ene24865 0.0 101861
18 may, tue
tue1800:00+13e2691100 0.0 1019114
03:00+12e3992100 0.0 1019184
06:00+15ese31083100 0.0 1019298
09:00+20ese4765100 0.0 1019568
12:00+24se4653100 0.0 10181102
15:00+26se464898 0.0 10181450
18:00+23ese4863100 0.0 1017525
21:00+18ese4127999 0.0 1018365
19 may, wed
wed1900:00+17se41383100 0.0 1018389
03:00+15se4138378 0.1 1018341
06:00+17se41274100 0.0 1018371
09:00+23sse48565 0.0 1017588
12:00+27sse57405 0.0 10171412
15:00+27sse56385 0.0 10162383
18:00+25se48545 0.0 1016757
21:00+19se312740 0.0 1017368
20 may, thu
thu2000:00+16se311780 0.0 1016279
03:00+14se29870 0.0 1016188
06:00+17se38740 0.0 1016243
09:00+23se58540 0.0 1015666
12:00+26sse58430 0.0 10141778
15:00+27sse58320 0.0 10141877
18:00+24se510500 0.0 10131403
21:00+20sse513632 0.0 1014759
21 may, fri
fri2100:00+17s412770 0.0 1014487
03:00+14sse311920 0.0 1014345
06:00+17s4981100 0.0 1014547
09:00+19s49699 0.0 10131153
12:00+23ssw6104693 0.1 10122353
15:00+20sw68455 0.0 10141852
18:00+18w475628 0.0 10151441
21:00+12sw2676100 0.0 1017122